TimeMST,TemperatureF,Dew PointF,Humidity,Sea Level PressureIn,VisibilityMPH,Wind Direction,Wind SpeedMPH,Gust SpeedMPH,PrecipitationIn,Events,Conditions,WindDirDegrees,DateUTC
12:53 AM,37.0,32.0,82,30.05,10.0,SW,4.6,-,N/A,,Overcast,230,2012-11-19 07:53:00
1:53 AM,37.0,32.0,82,30.05,10.0,Calm,Calm,-,N/A,,Overcast,0,2012-11-19 08:53:00
2:53 AM,36.0,30.9,82,30.09,10.0,SSE,3.5,-,N/A,,Clear,150,2012-11-19 09:53:00
3:53 AM,36.0,30.9,82,30.08,10.0,Calm,Calm,-,N/A,,Clear,0,2012-11-19 10:53:00
4:53 AM,34.0,30.0,85,30.09,10.0,Calm,Calm,-,N/A,,Clear,0,2012-11-19 11:53:00
5:53 AM,28.9,27.0,92,30.13,10.0,NNW,5.8,-,N/A,,Clear,330,2012-11-19 12:53:00
6:53 AM,28.9,27.0,92,30.14,10.0,West,3.5,-,N/A,,Clear,270,2012-11-19 13:53:00
7:53 AM,28.0,26.1,92,30.16,10.0,Calm,Calm,-,N/A,,Clear,0,2012-11-19 14:53:00
8:53 AM,33.1,30.0,89,30.15,10.0,Calm,Calm,-,N/A,,Clear,0,2012-11-19 15:53:00
9:53 AM,37.9,30.9,76,30.17,10.0,Calm,Calm,-,N/A,,Clear,0,2012-11-19 16:53:00
10:53 AM,43.0,32.0,65,30.15,10.0,South,6.9,-,N/A,,Clear,180,2012-11-19 17:53:00
12:53 PM,48.0,33.1,56,30.12,10.0,Calm,Calm,-,N/A,,Clear,0,2012-11-19 19:53:00
1:53 PM,52.0,34.0,50,30.09,10.0,Calm,Calm,-,N/A,,Clear,0,2012-11-19 20:53:00
2:53 PM,55.0,30.9,40,30.07,10.0,SE,12.7,-,N/A,,Clear,140,2012-11-19 21:53:00
3:53 PM,54.0,33.1,45,30.08,10.0,SE,8.1,-,N/A,,Clear,130,2012-11-19 22:53:00
4:53 PM,51.1,32.0,48,30.08,10.0,Calm,Calm,-,N/A,,Clear,0,2012-11-19 23:53:00
5:53 PM,48.0,32.0,54,30.12,10.0,East,4.6,-,N/A,,Clear,90,2012-11-20 00:53:00
6:53 PM,46.9,30.9,54,30.13,10.0,Calm,Calm,-,N/A,,Clear,0,2012-11-20 01:53:00
7:53 PM,37.0,30.9,79,30.16,10.0,West,3.5,-,N/A,,Clear,270,2012-11-20 02:53:00
8:53 PM,39.0,30.9,73,30.14,10.0,SE,4.6,-,N/A,,Clear,130,2012-11-20 03:53:00
9:53 PM,36.0,28.9,76,30.13,10.0,SE,5.8,-,N/A,,Clear,130,2012-11-20 04:53:00
10:53 PM,34.0,28.9,82,30.11,10.0,Variable,3.5,-,N/A,,Clear,0,2012-11-20 05:53:00
11:53 PM,33.1,28.0,82,30.11,10.0,Calm,Calm,-,N/A,,Clear,0,2012-11-20 06:53:00